Hourly Weather Kiten

Today, 22 October, Thursday

Time Temperature Precipitation Wind Pressure Humidity
00:00 +15°C° 0 mm 2 mps 765 mmHg 85%
01:00 +14°C° 0 mm 2 mps 765 mmHg 87%
02:00 +13°C° 0 mm 1 mps 764 mmHg 89%
03:00 +13°C° 0 mm 1 mps 764 mmHg 90%
04:00 +13°C° 0 mm 2 mps 764 mmHg 91%
05:00 +12°C° 0 mm 2 mps 764 mmHg 92%
06:00 +13°C° 0 mm 2 mps 764 mmHg 89%
07:00 +14°C° 0 mm 2 mps 764 mmHg 86%
08:00 +15°C° 0 mm 2 mps 765 mmHg 83%
09:00 +17°C° 0 mm 2 mps 765 mmHg 77%
10:00 +19°C° 0 mm 2 mps 765 mmHg 70%
11:00 +21°C° 0 mm 1 mps 765 mmHg 64%
12:00 +21°C° 0 mm 2 mps 764 mmHg 63%
13:00 +21°C° 0 mm 2 mps 764 mmHg 62%
14:00 +23°C° 0 mm 2 mps 764 mmHg 60%
15:00 +21°C° 0 mm 2 mps 764 mmHg 67%
16:00 +19°C° 0 mm 2 mps 763 mmHg 74%
17:00 +18°C° 0 mm 2 mps 763 mmHg 81%
18:00 +17°C° 0 mm 2 mps 763 mmHg 84%
19:00 +16°C° 0 mm 1 mps 764 mmHg 86%
20:00 +16°C° 0 mm 1 mps 764 mmHg 89%
21:00 +15°C° 0 mm 1 mps 764 mmHg 89%
22:00 +15°C° 0 mm 1 mps 764 mmHg 88%
23:00 +15°C° 0 mm 1 mps 764 mmHg 88%

Tomorrow, 23 October, Friday

Time Temperature Precipitation Wind Pressure Humidity
00:00 +15°C° 0 mm 1 mps 764 mmHg 88%
01:00 +15°C° 0 mm 1 mps 764 mmHg 87%
02:00 +15°C° 0 mm 1 mps 763 mmHg 87%
03:00 +15°C° 0 mm 1 mps 763 mmHg 86%
04:00 +15°C° 0 mm 1 mps 763 mmHg 85%
05:00 +15°C° 0 mm 1 mps 763 mmHg 85%
06:00 +16°C° 0 mm 1 mps 763 mmHg 80%
07:00 +18°C° 0 mm 1 mps 763 mmHg 75%
08:00 +19°C° 0 mm 1 mps 763 mmHg 70%
09:00 +21°C° 0 mm 1 mps 763 mmHg 62%
10:00 +23°C° 0 mm 1 mps 763 mmHg 55%
11:00 +26°C° 0 mm 1 mps 763 mmHg 47%
12:00 +26°C° 0 mm 1 mps 762 mmHg 47%
13:00 +26°C° 0 mm 2 mps 762 mmHg 47%
14:00 +26°C° 0 mm 2 mps 761 mmHg 48%
15:00 +25°C° 0 mm 2 mps 761 mmHg 56%
16:00 +23°C° 0 mm 2 mps 761 mmHg 63%
17:00 +20°C° 0 mm 2 mps 760 mmHg 71%
18:00 +20°C° 0 mm 2 mps 760 mmHg 71%
19:00 +19°C° 0 mm 2 mps 760 mmHg 71%
20:00 +18°C° 0 mm 2 mps 760 mmHg 71%
21:00 +18°C° 0 mm 2 mps 760 mmHg 68%
22:00 +18°C° 0 mm 2 mps 760 mmHg 65%
23:00 +18°C° 0 mm 2 mps 760 mmHg 62%

Day after tomorrow, 24 October, Saturday

Time Temperature Precipitation Wind Pressure Humidity
00:00 +18°C° 0 mm 2 mps 760 mmHg 60%
01:00 +17°C° 0 mm 2 mps 760 mmHg 58%
02:00 +18°C° 0 mm 1 mps 760 mmHg 56%
03:00 +18°C° 0 mm 1 mps 759 mmHg 56%
04:00 +18°C° 0 mm 1 mps 759 mmHg 56%
05:00 +18°C° 0 mm 1 mps 759 mmHg 56%
06:00 +18°C° 0 mm 1 mps 759 mmHg 55%
07:00 +19°C° 0 mm 1 mps 759 mmHg 54%
08:00 +20°C° 0 mm 1 mps 759 mmHg 53%
09:00 +23°C° 0 mm 1 mps 759 mmHg 47%
10:00 +25°C° 0 mm 1 mps 759 mmHg 40%
11:00 +27°C° 0 mm 1 mps 759 mmHg 34%
12:00 +28°C° 0 mm 1 mps 758 mmHg 35%
13:00 +28°C° 0 mm 1 mps 758 mmHg 36%
14:00 +28°C° 0 mm 1 mps 758 mmHg 36%
15:00 +26°C° 0 mm 1 mps 757 mmHg 42%
16:00 +24°C° 0 mm 1 mps 757 mmHg 47%
17:00 +22°C° 0 mm 1 mps 757 mmHg 53%
18:00 +22°C° 0 mm 1 mps 757 mmHg 53%
19:00 +21°C° 0 mm 1 mps 758 mmHg 53%
20:00 +21°C° 0 mm 1 mps 758 mmHg 53%
21:00 +21°C° 0 mm 1 mps 758 mmHg 54%
22:00 +19°C° 0 mm 2 mps 758 mmHg 55%
23:00 +19°C° 0 mm 2 mps 758 mmHg 55%

, 25 October, Sunday

Time Temperature Precipitation Wind Pressure Humidity
00:00 +19°C° 0 mm 2 mps 758 mmHg 57%
01:00 +18°C° 0 mm 2 mps 758 mmHg 59%
02:00 +18°C° 0 mm 2 mps 758 mmHg 61%
03:00 +17°C° 0 mm 2 mps 758 mmHg 61%
04:00 +17°C° 0 mm 2 mps 758 mmHg 61%
05:00 +17°C° 0 mm 2 mps 758 mmHg 61%
06:00 +17°C° 0 mm 3 mps 758 mmHg 59%
07:00 +18°C° 0 mm 3 mps 758 mmHg 58%
08:00 +18°C° 0 mm 3 mps 759 mmHg 57%
09:00 +19°C° 0 mm 4 mps 759 mmHg 60%
10:00 +20°C° 0 mm 4 mps 759 mmHg 62%
11:00 +21°C° 0 mm 5 mps 759 mmHg 65%
12:00 +21°C° 0 mm 5 mps 759 mmHg 67%
13:00 +21°C° 0 mm 5 mps 758 mmHg 68%
14:00 +22°C° 0 mm 5 mps 758 mmHg 69%
15:00 +21°C° 0 mm 5 mps 758 mmHg 74%
16:00 +20°C° 0 mm 5 mps 758 mmHg 80%
17:00 +19°C° 0 mm 5 mps 758 mmHg 85%
18:00 +19°C° 0 mm 4 mps 758 mmHg 87%
19:00 +18°C° 0 mm 4 mps 758 mmHg 89%
20:00 +18°C° 0 mm 4 mps 759 mmHg 92%
21:00 +18°C° 0 mm 3 mps 759 mmHg 92%
22:00 +18°C° 0 mm 3 mps 758 mmHg 93%
23:00 +18°C° 0 mm 3 mps 758 mmHg 94%

25 October, Sunday

Time Temperature Precipitation Wind Pressure Humidity
00:00 +19°C° 0 mm 2 mps 758 mmHg 57%
01:00 +18°C° 0 mm 2 mps 758 mmHg 59%
02:00 +18°C° 0 mm 2 mps 758 mmHg 61%
03:00 +17°C° 0 mm 2 mps 758 mmHg 61%
04:00 +17°C° 0 mm 2 mps 758 mmHg 61%
05:00 +17°C° 0 mm 2 mps 758 mmHg 61%
06:00 +17°C° 0 mm 3 mps 758 mmHg 59%
07:00 +18°C° 0 mm 3 mps 758 mmHg 58%
08:00 +18°C° 0 mm 3 mps 759 mmHg 57%
09:00 +19°C° 0 mm 4 mps 759 mmHg 60%
10:00 +20°C° 0 mm 4 mps 759 mmHg 62%
11:00 +21°C° 0 mm 5 mps 759 mmHg 65%
12:00 +21°C° 0 mm 5 mps 759 mmHg 67%
13:00 +21°C° 0 mm 5 mps 758 mmHg 68%
14:00 +22°C° 0 mm 5 mps 758 mmHg 69%
15:00 +21°C° 0 mm 5 mps 758 mmHg 74%
16:00 +20°C° 0 mm 5 mps 758 mmHg 80%
17:00 +19°C° 0 mm 5 mps 758 mmHg 85%
18:00 +19°C° 0 mm 4 mps 758 mmHg 87%
19:00 +18°C° 0 mm 4 mps 758 mmHg 89%
20:00 +18°C° 0 mm 4 mps 759 mmHg 92%
21:00 +18°C° 0 mm 3 mps 759 mmHg 92%
22:00 +18°C° 0 mm 3 mps 758 mmHg 93%
23:00 +18°C° 0 mm 3 mps 758 mmHg 94%

26 October, Monday

Time Temperature Precipitation Wind Pressure Humidity
00:00 +18°C° 0 mm 3 mps 758 mmHg 94%
01:00 +17°C° 0 mm 2 mps 758 mmHg 94%
02:00 +17°C° 0 mm 2 mps 758 mmHg 94%
03:00 +18°C° 0 mm 3 mps 758 mmHg 94%
04:00 +18°C° 0 mm 3 mps 757 mmHg 94%
05:00 +18°C° 0 mm 3 mps 757 mmHg 94%
06:00 +18°C° 0 mm 3 mps 757 mmHg 93%
07:00 +18°C° 0 mm 3 mps 757 mmHg 91%
08:00 +19°C° 0 mm 3 mps 757 mmHg 90%
09:00 +20°C° 0 mm 2 mps 757 mmHg 82%
10:00 +21°C° 0 mm 2 mps 757 mmHg 75%
11:00 +23°C° 0 mm 2 mps 757 mmHg 67%
12:00 +23°C° 0 mm 2 mps 757 mmHg 65%
13:00 +23°C° 0 mm 2 mps 757 mmHg 63%
14:00 +23°C° 0 mm 2 mps 757 mmHg 61%
15:00 +21°C° 0 mm 2 mps 757 mmHg 65%
16:00 +21°C° 0 mm 1 mps 756 mmHg 69%
17:00 +21°C° 0 mm 1 mps 756 mmHg 72%
18:00 +20°C° 0 mm 1 mps 756 mmHg 75%
19:00 +19°C° 0 mm 1 mps 757 mmHg 77%
20:00 +19°C° 0 mm 1 mps 757 mmHg 79%
21:00 +19°C° 0 mm 1 mps 757 mmHg 80%
22:00 +18°C° 0 mm 1 mps 757 mmHg 80%
23:00 +17°C° 0 mm 2 mps 757 mmHg 80%

27 October, Tuesday

Time Temperature Precipitation Wind Pressure Humidity
00:00 +18°C° 0 mm 1 mps 757 mmHg 79%
01:00 +18°C° 0 mm 1 mps 757 mmHg 78%
02:00 +16°C° 0 mm 1 mps 757 mmHg 77%
03:00 +16°C° 0 mm 1 mps 757 mmHg 77%
04:00 +16°C° 0 mm 1 mps 757 mmHg 78%
05:00 +16°C° 0 mm 1 mps 757 mmHg 79%
06:00 +18°C° 0 mm 1 mps 758 mmHg 76%
07:00 +19°C° 0 mm 1 mps 758 mmHg 73%
08:00 +20°C° 0 mm 1 mps 758 mmHg 70%
09:00 +21°C° 0 mm 1 mps 758 mmHg 64%
10:00 +23°C° 0 mm 2 mps 758 mmHg 58%
11:00 +25°C° 0 mm 2 mps 758 mmHg 52%
12:00 +25°C° 0 mm 2 mps 758 mmHg 52%
13:00 +26°C° 0 mm 3 mps 758 mmHg 52%
14:00 +26°C° 0 mm 3 mps 757 mmHg 52%
15:00 +24°C° 0 mm 3 mps 757 mmHg 60%
16:00 +22°C° 0 mm 3 mps 757 mmHg 68%
17:00 +20°C° 0 mm 3 mps 757 mmHg 76%
18:00 +20°C° 0 mm 3 mps 757 mmHg 80%
19:00 +19°C° 0 mm 3 mps 757 mmHg 84%
20:00 +18°C° 0 mm 2 mps 757 mmHg 88%
21:00 +18°C° 0 mm 2 mps 757 mmHg 88%
22:00 +17°C° 0 mm 2 mps 757 mmHg 89%
23:00 +17°C° 0 mm 2 mps 757 mmHg 89%
Show more